Regional Weather Roundup
Issued by NWS

Home | Current Version | Previous Version | Graphics & Text | Print | Product List | Glossary Off
Versions: 1 2 3 4 5 6 7 8 9 10 11 12 13 14 15 16 17 18 19 20 21 22 23 24 25 26 27 28 29 30 31 32 33 34 35 36 37 38 39 40 41 42 43 44 45 46 47 48 49 50

000
ASUS43 KDTX 200901
RWRMI
MICHIGAN HOURLY REGIONAL WEATHER ROUNDUP
NATIONAL WEATHER SERVICE DETROIT/PONTIAC MI
500 AM EDT SAT SEP 20 2014

NOTE: "FAIR" INDICATES FEW OR NO CLOUDS BELOW 12,000 FEET WITH NO
SIGNIFICANT WEATHER AND/OR OBSTRUCTION TO VISIBILITY.

MIZ047>049-052>055-059>063-066>070-074>076-081>083-201000-
SOUTHEAST LOWER MICHIGAN

CITY           SKY/WX    TMP DP  RH WIND       PRES   REMARKS
ADRIAN         CLEAR     52  46  80 W6        30.01R
ALMA           MOCLDY    55  48  77 S9        29.91S
ANN ARBOR      PTCLDY    45  44  97 CALM      29.99S FOG
BAD AXE        MOCLDY    56  51  84 S12       29.92F
CARO           MOCLDY    57  49  74 S10       29.92F
DETROIT CITY   CLEAR     60  51  72 SW7       29.98F
DETROIT        PTCLDY    53  47  79 S6        30.00S
FLINT          MOCLDY    61  47  59 S10G17    29.95F
GROSSE ILE     CLEAR     61  54  77 S7        29.98S
HILLSDALE      CLEAR     56  49  79 SW7       29.99F
HOWELL         PTCLDY    56  48  73 SW8       29.97S

CITY           SKY/WX    TMP DP  RH WIND       PRES   REMARKS
JACKSON        MOCLDY    58  48  69 SW10      29.97F
LAMBERTVILLE   CLEAR     55  46  71 S8        30.00S
LANSING        PTCLDY    57  47  69 S10       29.95F
LAPEER         FAIR      56  47  70 SW6       29.97S
MASON          PTCLDY    54  47  79 CALM      29.96S
MT. CLEMENS    CLEAR     55  55  99 SW5       29.97S
PONTIAC        MOCLDY    58  46  64 SW6       29.98S
PORT HOPE        N/A     59  49  69 VRB6      29.89F
PORT HURON     MOCLDY    52  52 100 CALM      29.98S
TRI CITIES     PTCLDY    58  49  72 S12       29.90F
TROY           PTCLDY    54  49  85 SW3       30.00S
SAGINAW HB     CLOUDY    59  46  63 S13       29.90F
$$
MIZ043>046-050>051-056>058-064>065-071>073-077>080-201000-
SOUTHWEST LOWER MICHIGAN

CITY           SKY/WX    TMP DP  RH WIND       PRES   REMARKS
BATTLE CREEK   PTCLDY    56  48  74 S10       29.96F
BENTON HARBOR  PTCLDY    59  50  72 S10       29.93F
BIG RAPIDS     MOCLDY    60  53  75 S7G18     29.87R
COLDWATER      CLEAR     58  50  75 SW7       29.98F
FREMONT        FAIR      59  52  77 S8        29.87R
HOLLAND        CLOUDY    66  53  63 SW13      29.93R
GRAND RAPIDS   MOCLDY    62  50  64 S13       29.93F
IONIA          FAIR      58  49  72 SW10G16   29.92S
KALAMAZOO      PTCLDY    57  49  74 S12       29.96F
LUDINGTON      CLOUDY    64  55  70 S21G32    29.82F
MARSHALL       MOCLDY    57  48  72 SW8       29.97S
MOUNT PLEASANT PTCLDY    55  48  76 S6        29.88R
MUSKEGON       CLOUDY    66  55  67 S21G32    29.90R
SOUTH HAVEN    PTCLDY    63  52  67 SW10      29.93S
$$
MIZ016>042-201000-
NORTHERN LOWER MICHIGAN

CITY           SKY/WX    TMP DP  RH WIND       PRES   REMARKS
ALPENA         CLOUDY    59  48  67 S13       29.79F
BEAVER ISLAND  CLOUDY    64  56  73 SW15G28   29.72S
BELLAIRE       CLOUDY    66  49  54 S8        29.78S
CADILLAC       CLOUDY    60  51  72 SW16G22   29.84R
CHARLEVOIX     CLOUDY    64  53  66 S12G17    29.77S
FRANKFORT      CLOUDY    66  53  62 S14G23    29.78F
GAYLORD        CLOUDY    60  48  64 SW13      29.81F
GRAYLING       CLOUDY    59  48  66 SW8       29.84S
HARBOR SPRINGS LGT RAIN  61  55  79 W3        29.76S
HOUGHTON LAKE  CLOUDY    58  48  69 S10       29.86F
MANISTEE       CLOUDY    66  52  59 SW13G22   29.81F
OSCODA         CLEAR     57  49  75 SW13      29.85F
PELLSTON       CLOUDY    63  53  70 SW16G24   29.75F
ROGERS CITY    CLOUDY    62  51  66 SW10G18   29.77S
TRAVERSE CITY  CLOUDY    67  49  52 SW13G24   29.76F
$$
MIZ007>008-015-201000-
EASTERN UPPER MICHIGAN

CITY           SKY/WX    TMP DP  RH WIND       PRES   REMARKS
KINROSS        CLOUDY    59  57  94 S6        29.71F
MACKINAC ISLAN CLOUDY    62  52  69 SW14G24   29.74S
NEWBERRY       CLOUDY    60  53  76 SW15G22   29.69S
S. S. MARIE    CLOUDY    57  54  89 CALM      29.71F
$$
MIZ004>006-011>014-085-201000-
CENTRAL UPPER MICHIGAN

CITY           SKY/WX    TMP DP  RH WIND       PRES   REMARKS
MANISTIQUE     CLOUDY    59  54  83 SW14      29.69F
ESCANABA       CLOUDY    61  54  77 S5        29.67F
MENOMINEE      CLOUDY    63  55  77 SW8       29.69F THUNDER
SAWYER-GWINN   CLOUDY    59  53  80 S10       29.65F
$$
MIZ001>003-009>011-084-201000-
WESTERN UPPER MICHIGAN

CITY           SKY/WX    TMP DP  RH WIND       PRES   REMARKS
IRON MOUNTAIN  CLOUDY    61  55  81 SE6       29.66F
HOUGHTON       CLOUDY    61  58  90 CALM      29.58F
COPPER HARBOR    N/A     60  56  86 CALM      29.57F
IRONWOOD       CLOUDY    64  64 100 SW9       29.56F
$$

ABBREVIATIONS USED IN REMARKS
   TC - TEMPERATURE IN CELSIUS
  WCI - WIND CHILL INDEX
   HX - HEAT INDEX
  VSB - VISIBILITY




USA.gov is the U.S. government's official web portal to all federal, state and local government web resources and services.